Weather History for Doha, Qatar

Change the Weather History Date:

Friday, August 30, 2013

  Actual Average Record
Temperature  
Mean Temperature 94 °F -  
Max Temperature 99 °F 101 °F 109 °F (1998)
Min Temperature 88 °F 80 °F 82 °F (1997)
Cooling Degree Days 28    
Growing Degree Days 44 (Base 50)    
Moisture  
Dew Point 82 °F    
Average Humidity 69    
Maximum Humidity 79    
Minimum Humidity 52    
Precipitation  
Precipitation 0.00 in 0.00 in - ()
Sea Level Pressure  
Sea Level Pressure 29.64 in    
Wind  
Wind Speed 7 mph ()    
Max Wind Speed 12 mph    
Max Gust Speed -    
Visibility 5.5 miles    
Events      
Averages and records for this station are not official NWS values.
T = Trace of Precipitation, MM = Missing Value Source: Averaged Metar Reports

Daily Weather History Graph

Daily Weather History Graph

Search for Another Location

Airport:

Trip Planner

Search our weather history database for the weather conditions in past years. The results will help you decide how hot, cold, wet, or windy it might be!

Date:

Astronomy

Aug. 30, 2013 Rise Set
Actual Time 5:13 AM AST 5:54 PM AST
Civil Twilight 4:50 AM AST 6:18 PM AST
Nautical Twilight 4:22 AM AST 6:45 PM AST
Astronomical Twilight 3:54 AM AST 7:13 PM AST
Moon No Moon Rise 1:34 PM AST (8/30)
Length of Visible Light 13h 27m
Length of Day
12h 41m
Waning Crescent, 32% of the Moon is Illuminated
Aug 30
Waning Crescent
Sep 5
New
Sep 12
First Quarter
Sep 19
Full
Sep 27
Last Quarter

Hourly Weather History & Observations

Time (AST) Temp. Heat Index Dew Point Humidity Pressure Visibility Wind Dir Wind Speed Gust Speed Precip Events Conditions
12:00 AM 89.6 °F 111.1 °F 82.4 °F 79% 29.62 in 5.0 mi North 5.8 mph - N/A   Unknown
1:30 AM 89.6 °F 111.1 °F 82.4 °F 79% 29.62 in 5.6 mi North 5.8 mph - N/A   Unknown
2:00 AM 89.6 °F 111.1 °F 82.4 °F 79% 29.59 in 5.6 mi NE 5.8 mph - N/A   Unknown
3:00 AM 90 °F - 82 °F 70% 29.62 in 6 mi NNE 3.5 mph - -   Haze
3:00 AM 89.6 °F 111.1 °F 82.4 °F 79% 29.59 in 5.6 mi NNE 3.5 mph - N/A   Unknown
3:30 AM 89.6 °F 111.1 °F 82.4 °F 79% 29.62 in 5.0 mi Variable 2.3 mph - N/A   Unknown
4:00 AM 89.6 °F 108.2 °F 80.6 °F 75% 29.62 in 5.0 mi NE 4.6 mph - N/A   Unknown
5:00 AM 89.6 °F 111.1 °F 82.4 °F 79% 29.62 in 5.0 mi NE 4.6 mph - N/A   Partly Cloudy
5:30 AM 89.6 °F 111.1 °F 82.4 °F 79% 29.65 in 5.0 mi NE 5.8 mph - N/A   Partly Cloudy
6:00 AM 91.4 °F 114.3 °F 82.4 °F 75% 29.65 in 5.6 mi ENE 4.6 mph - N/A   Partly Cloudy
6:30 AM 91.4 °F 114.3 °F 82.4 °F 75% 29.65 in 5.6 mi ENE 6.9 mph - N/A   Partly Cloudy
7:00 AM 93.2 °F 117.1 °F 82.4 °F 71% 29.68 in 5.6 mi ENE 6.9 mph - N/A   Partly Cloudy
7:30 AM 93.2 °F 117.1 °F 82.4 °F 71% 29.68 in 5.6 mi ENE 8.1 mph - N/A   Unknown
8:00 AM 93.2 °F 117.1 °F 82.4 °F 71% 29.68 in 5.6 mi ENE 8.1 mph - N/A   Unknown
8:30 AM 95.0 °F 119.6 °F 82.4 °F 67% 29.68 in 5.6 mi East 10.4 mph - N/A   Partly Cloudy
9:00 AM 95 °F - 82 °F 59% 29.70 in 6 mi ENE 10.4 mph - -   Haze
9:00 AM 95.0 °F 119.6 °F 82.4 °F 67% 29.68 in 5.6 mi ENE 10.4 mph - N/A   Partly Cloudy
9:30 AM 96.8 °F 121.7 °F 82.4 °F 63% 29.68 in 5.6 mi East 10.4 mph - N/A   Partly Cloudy
10:00 AM 96.8 °F 121.7 °F 82.4 °F 63% 29.68 in 5.6 mi East 9.2 mph - N/A   Partly Cloudy
10:30 AM 96.8 °F 121.7 °F 82.4 °F 63% 29.68 in 5.6 mi East 11.5 mph - N/A   Partly Cloudy
11:00 AM 96.8 °F 121.7 °F 82.4 °F 63% 29.68 in 5.6 mi East 10.4 mph - N/A   Partly Cloudy
11:30 AM 96.8 °F 121.7 °F 82.4 °F 63% 29.65 in 5.6 mi East 9.2 mph - N/A   Partly Cloudy
12:00 PM 98.6 °F 124.6 °F 82.4 °F 60% 29.65 in 5.0 mi East 8.1 mph - N/A   Partly Cloudy
12:30 PM 96.8 °F 118.6 °F 80.6 °F 60% 29.65 in 5.0 mi ENE 8.1 mph - N/A   Unknown
1:00 PM 98.6 °F 120.3 °F 80.6 °F 56% 29.65 in 5.0 mi ENE 9.2 mph - N/A   Unknown
1:30 PM 98.6 °F 120.3 °F 80.6 °F 56% 29.62 in 5.0 mi East 8.1 mph - N/A   Unknown
2:00 PM 96.8 °F 118.6 °F 80.6 °F 60% 29.62 in 5.0 mi ENE 9.2 mph - N/A   Partly Cloudy
2:30 PM 96.8 °F 121.7 °F 82.4 °F 63% 29.62 in 5.0 mi NE 10.4 mph - N/A   Partly Cloudy
3:00 PM 97 °F - 81 °F 52% 29.62 in 6 mi NE 10.4 mph - -   Haze
3:00 PM 96.8 °F 118.6 °F 80.6 °F 60% 29.62 in 5.6 mi NE 10.4 mph - N/A   Unknown
3:30 PM 96.8 °F 118.6 °F 80.6 °F 60% 29.59 in 5.6 mi NNE 10.4 mph - N/A   Unknown
4:00 PM 96.8 °F 118.6 °F 80.6 °F 60% 29.59 in 5.6 mi NNE 11.5 mph - N/A   Unknown
4:30 PM 95.0 °F 115.8 °F 80.6 °F 63% 29.59 in 5.6 mi NE 10.4 mph - N/A   Unknown
5:00 PM 95.0 °F 119.6 °F 82.4 °F 67% 29.59 in 5.6 mi NNE 8.1 mph - N/A   Unknown
5:30 PM 93.2 °F 117.1 °F 82.4 °F 71% 29.59 in 5.6 mi NNE 9.2 mph - N/A   Unknown
6:00 PM 93.2 °F 117.1 °F 82.4 °F 71% 29.59 in 5.0 mi NNE 10.4 mph - N/A   Unknown
6:30 PM 93.2 °F 117.1 °F 82.4 °F 71% 29.62 in 5.6 mi NNE 9.2 mph - N/A   Unknown
7:00 PM 93.2 °F 117.1 °F 82.4 °F 71% 29.62 in 5.6 mi NNE 9.2 mph - N/A   Unknown
7:30 PM 93.2 °F 117.1 °F 82.4 °F 71% 29.62 in 5.6 mi NNE 9.2 mph - N/A   Unknown
8:00 PM 91.4 °F 114.3 °F 82.4 °F 75% 29.65 in 5.6 mi NE 9.2 mph - N/A   Unknown
9:00 PM 92 °F - 83 °F 68% 29.67 in 6 mi NE 10.4 mph - -  
9:00 PM 91.4 °F 114.3 °F 82.4 °F 75% 29.65 in - NE 10.4 mph - N/A   Clear
9:30 PM 91.4 °F 114.3 °F 82.4 °F 75% 29.65 in - NNE 8.1 mph - N/A   Clear
10:00 PM 91.4 °F 114.3 °F 82.4 °F 75% 29.65 in - North 6.9 mph - N/A   Clear
10:30 PM 91.4 °F 114.3 °F 82.4 °F 75% 29.65 in - NNE 9.2 mph - N/A   Clear
11:00 PM 91.4 °F 114.3 °F 82.4 °F 75% 29.65 in - NNE 5.8 mph - N/A   Clear
11:30 PM 91.4 °F 114.3 °F 82.4 °F 75% 29.62 in - Variable 2.3 mph - N/A   Clear